Temperature
20 20 20 19 19 19 19 18 18 18 18 18 18 17 17 17 17 17 17 17 17 17 17 16 16 16 16 16 16 15 15 15 14 14 13 13 13 13 13 13 13 13 13
20 20 19 19 19 19 18 18 18 18 18 17 17 17 17 17 17 17 17 17 17 16 16 16 16 16 16 15 15 15 15 15 14 14 13 13 13 13 13 12 12 12 12
20 20 19 19 19 19 18 18 18 18 17 17 17 17 17 17 17 17 16 16 16 16 16 16 16 15 15 15 15 15 14 14 14 13 13 12 12 12 12 12 12 12 12
20 20 19 19 19 18 18 18 18 17 17 17 17 17 17 17 16 16 16 16 16 15 15 15 15 15 15 15 15 14 14 14 13 13 13 12 12 12 12 12 11 11 11
20 20 19 19 18 18 18 18 17 17 17 17 17 16 16 16 16 16 16 15 15 15 15 15 15 15 14 14 14 14 14 14 13 13 13 12 12 12 11 11 11 11 11
20 20 19 19 18 18 18 17 17 17 17 16 16 16 16 15 15 15 15 15 15 15 14 14 14 14 14 14 14 14 14 13 13 13 12 12 12 12 11 11 11 11 10
20 19 19 18 18 18 17 17 17 16 16 16 16 16 16 15 15 15 15 14 14 14 14 14 14 14 14 13 13 13 13 13 13 13 12 12 12 11 11 11 11 11 11
19 19 18 18 18 17 17 17 16 16 16 16 16 15 15 15 14 14 14 14 14 14 13 13 13 13 13 13 13 13 13 12 12 12 12 12 12 11 11 11 11 10 10
19 18 18 18 18 17 17 16 16 16 16 15 15 15 14 14 14 14 14 14 13 13 13 13 13 13 12 12 13 12 12 12 12 12 11 11 11 11 11 11 10 10 10
19 18 18 18 18 17 17 16 16 15 15 15 15 14 14 14 13 13 13 13 13 13 13 13 12 12 12 12 12 12 12 11 11 11 11 11 11 11 10 10 10 10 10
19 18 18 17 17 17 16 16 16 15 15 15 14 14 14 13 13 13 13 13 13 13 13 12 12 12 12 12 12 12 11 11 11 11 11 11 10 10 10 10 10 10 9
18 18 17 17 17 16 16 15 15 15 15 14 14 14 13 13 13 13 13 13 13 13 12 12 12 12 12 12 12 11 11 11 11 11 10 10 10 10 10 10 9 9 9
18 17 17 16 16 16 15 15 15 15 14 14 14 13 13 13 13 13 13 13 12 12 12 12 12 12 11 11 11 11 11 11 11 10 10 10 10 10 10 9 9 9 9
18 17 17 16 16 15 15 15 15 15 14 14 14 13 13 13 13 13 12 12 12 12 12 12 11 11 11 11 11 11 11 10 10 10 10 10 10 9 9 9 9 9 9
17 17 16 16 15 15 15 15 15 15 14 14 14 14 13 13 13 13 12 12 12 12 12 12 11 11 11 11 10 10 10 10 10 10 9 9 9 9 9 9 9 9 8
17 16 16 16 15 15 15 15 14 14 14 14 13 13 13 13 13 12 12 12 12 12 11 11 11 11 11 10 10 10 10 10 9 9 9 9 9 9 9 9 8 8 8
17 16 16 16 15 15 15 14 14 14 14 13 13 13 13 13 12 12 12 12 12 11 11 11 11 11 10 10 10 10 10 9 9 9 9 9 9 9 8 8 8 8 8
16 16 16 16 15 15 15 14 14 14 14 13 13 13 13 12 12 12 12 12 11 11 11 11 11 10 10 10 10 10 9 9 9 9 9 9 9 8 8 8 8 8 8
16 16 15 15 15 15 14 14 14 14 13 13 13 13 13 12 12 12 12 12 11 11 11 11 10 10 10 10 9 9 9 9 9 9 9 8 8 8 8 8 8 8 7
15 15 15 15 15 14 14 14 14 14 13 13 13 13 13 12 12 12 12 11 11 11 11 11 10 10 10 10 9 9 9 9 9 9 8 8 8 8 8 8 7 7 7
15 15 15 15 14 14 14 14 14 13 13 13 13 13 12 12 12 12 11 11 11 11 11 10 10 10 10 9 9 9 9 9 8 8 8 8 8 8 7 7 7 7 7
15 15 15 14 14 14 14 14 14 13 13 13 13 12 12 12 12 11 11 11 11 11 10 10 10 10 9 9 9 9 8 8 8 8 8 8 7 7 7 7 7 7 7
15 15 14 14 14 14 14 14 14 13 13 13 13 12 12 12 12 11 11 11 11 10 10 10 10 9 9 9 9 8 8 8 8 8 8 7 7 7 7 7 7 7 7
15 14 14 14 14 14 14 14 13 13 13 13 12 12 12 12 11 11 11 11 10 10 10 10 9 9 9 9 8 8 8 8 8 7 7 7 7 7 7 7 7 6 6
14 14 14 14 14 14 13 13 13 13 13 12 12 12 12 11 11 11 11 11 10 10 10 9 9 9 9 8 8 8 8 7 7 7 7 7 7 7 7 6 6 6 6
14 14 14 14 13 13 13 13 13 13 12 12 12 12 11 11 11 11 10 10 10 10 9 9 9 9 8 8 8 8 7 7 7 7 7 7 7 6 6 6 6 6 6
Wind_Speed
7 5 4 3 3 3 2 2 2 2 2 2 2 2 2 2 1 2 1 1 1 1 0 1 1 1 1 1 2 2 2 4 4 1 1 1 2 3 4 6 7 8 8
6 5 5 4 4 3 3 2 3 3 3 3 3 3 3 2 2 2 2 1 2 1 1 2 1 2 2 2 2 3 3 3 5 4 1 1 1 2 4 4 6 7 7
6 6 5 4 4 4 3 3 3 3 3 3 4 4 3 2 3 2 2 2 2 1 1 2 1 2 2 2 2 3 3 4 4 4 2 1 1 2 3 4 5 4 6
7 7 6 5 5 4 4 4 3 4 4 4 4 3 3 3 3 2 2 3 3 3 2 2 2 2 2 2 3 3 4 5 4 5 3 2 1 1 3 3 2 2 3
8 7 6 5 4 4 4 4 4 4 4 4 4 4 3 3 3 3 3 4 3 3 3 3 3 4 3 2 3 3 5 4 4 4 3 2 1 2 2 2 3 2 2
8 7 6 5 5 5 5 5 5 4 4 5 4 4 4 3 3 4 4 4 3 3 3 3 4 5 6 7 6 5 6 6 5 4 3 3 3 2 2 3 3 3 1
8 7 6 6 6 5 6 5 5 4 4 4 4 4 4 4 5 5 6 4 4 3 3 3 3 4 5 5 7 8 6 6 6 6 5 4 4 4 4 3 3 3 2
8 7 6 6 6 5 6 6 5 4 4 4 4 4 4 4 6 6 7 5 4 4 3 3 4 3 4 5 5 6 5 4 4 4 4 3 3 4 5 5 4 3 2
8 7 6 7 7 6 6 5 5 5 4 4 4 4 4 3 5 6 6 4 5 5 4 4 4 4 5 7 7 6 5 4 6 7 7 5 5 5 6 4 4 3 1
8 7 6 7 7 7 6 5 5 5 5 5 4 4 4 3 4 6 7 4 5 4 4 5 6 6 6 7 5 5 5 2 3 4 5 5 4 4 5 4 5 4 2
8 7 6 6 6 6 5 5 5 5 5 5 5 3 3 3 4 5 6 4 4 4 3 2 2 5 6 6 5 3 3 3 3 3 3 3 3 3 2 2 3 4 3
8 8 7 6 6 5 6 5 5 6 6 5 4 3 2 2 4 4 6 5 5 5 3 1 1 4 5 5 4 4 5 5 3 3 3 2 1 1 1 2 3 2 2
9 7 6 6 5 5 6 5 5 5 5 4 4 3 1 1 2 4 5 5 5 4 2 2 3 4 5 4 4 5 5 4 3 3 2 0 1 1 1 2 3 4 4
9 8 7 6 5 4 4 4 5 4 5 5 4 4 2 1 1 1 2 2 4 3 2 3 4 5 5 3 3 3 2 2 3 2 1 0 1 1 1 1 1 1 2
9 8 7 6 6 5 4 2 3 3 5 6 5 5 5 4 4 4 4 2 2 2 3 3 3 3 3 2 2 2 2 2 2 1 1 1 1 1 1 0 1 1 1
9 8 6 6 5 5 5 3 5 3 2 5 7 7 4 5 6 6 5 4 4 5 4 3 2 2 1 1 1 1 1 1 1 1 1 1 1 1 0 0 1 1 1
9 8 7 7 7 6 6 6 4 3 5 4 4 6 7 7 7 6 6 5 5 6 4 2 2 2 2 2 2 1 1 1 1 1 1 1 0 0 0 0 0 0 1
9 9 8 7 7 7 7 6 6 6 4 1 1 3 6 7 7 7 6 6 2 2 2 3 2 2 2 2 2 2 1 1 1 1 1 0 0 0 0 0 1 1 1
8 7 7 6 6 6 6 6 6 6 5 4 2 1 2 4 4 4 6 4 3 2 2 2 3 3 2 2 2 2 2 2 1 1 1 0 0 1 0 1 1 1 1
6 8 8 6 6 6 6 6 6 6 5 5 5 4 3 3 2 2 2 2 3 3 3 3 3 3 3 3 2 2 2 1 1 1 1 1 1 1 1 1 1 1 2
6 7 8 7 6 7 6 7 7 6 6 6 5 6 8 5 5 5 4 3 4 4 4 4 3 4 3 3 3 2 3 2 2 1 1 1 1 1 1 1 2 2 1
6 6 6 6 6 6 6 6 6 7 7 7 5 5 9 5 4 4 4 4 4 4 4 4 4 4 4 4 4 3 3 2 2 2 2 1 1 1 1 1 1 1 1
6 6 5 5 5 6 6 5 5 6 6 6 6 5 5 5 4 4 4 3 3 4 5 5 5 4 5 6 7 6 4 4 4 4 3 2 1 1 1 2 2 1 2
6 6 6 5 5 5 5 5 5 6 6 6 6 6 6 5 5 5 4 3 4 5 5 6 7 7 7 7 7 7 6 6 6 5 4 3 2 2 2 2 2 2 3
5 5 5 5 5 6 5 5 5 5 5 5 5 5 5 5 4 4 4 4 5 5 6 7 8 8 9 8 7 6 5 5 5 4 4 3 2 2 2 2 2 2 2
5 5 5 5 5 5 6 5 5 5 5 5 5 5 5 5 5 5 4 4 4 4 5 6 8 8 8 8 7 7 6 5 5 4 4 3 3 2 2 2 3 2 2
Wind_Direction
173 169 168 170 173 160 138 127 117 110 109 104 112 111 100 94 87 98 93 101 124 119 80 112 137 112 108 108 117 115 119 133 144 149 110 115 82 88 88 93 94 92 90
165 156 156 144 137 133 126 121 116 111 108 110 101 98 93 83 71 77 76 62 83 76 71 95 89 102 100 104 119 127 132 132 141 144 122 96 87 108 101 100 91 90 92
151 145 143 135 132 136 136 129 125 115 100 93 95 95 91 84 81 77 84 76 83 69 73 103 108 102 98 113 125 131 133 128 123 134 132 112 95 112 100 89 87 82 93
149 146 144 145 142 139 132 126 121 113 104 97 94 91 85 79 72 71 85 83 74 62 60 72 94 112 136 139 137 139 129 120 119 127 132 132 126 136 117 114 89 50 69
147 147 151 148 137 125 121 118 113 108 104 100 95 83 75 76 66 70 83 89 84 72 56 54 72 83 89 126 137 144 137 133 134 133 140 133 142 151 159 160 125 106 44
148 153 150 140 133 129 126 120 110 101 93 89 88 83 71 64 72 89 98 93 93 90 78 60 64 65 72 78 91 106 129 145 150 147 148 157 175 178 154 143 133 123 103
152 152 151 149 144 141 134 123 119 116 106 94 85 82 74 61 74 88 96 102 92 86 87 79 76 66 64 74 77 80 85 106 135 152 154 169 171 178 154 146 149 146 159
156 157 157 150 148 145 139 137 136 123 114 103 90 86 81 65 78 93 97 93 83 77 80 89 92 75 76 88 86 75 68 70 100 124 145 164 166 168 168 166 161 128 81
155 158 155 149 147 146 144 142 136 123 109 102 101 93 84 59 73 92 98 89 81 70 66 75 93 90 83 93 91 85 71 52 70 91 100 101 108 121 137 125 125 123 112
161 158 151 147 148 150 148 141 133 126 122 110 96 92 97 82 75 97 104 105 92 79 64 61 78 92 91 95 103 105 98 75 70 62 59 60 69 84 115 146 158 157 153
150 143 141 142 143 144 137 136 134 128 120 110 103 88 86 88 87 103 112 114 120 106 91 65 54 82 87 87 101 114 141 134 100 88 73 57 50 48 50 91 145 156 157
140 140 140 142 141 136 130 130 132 135 128 123 115 94 69 67 82 102 111 116 120 114 117 112 85 86 81 84 90 102 103 99 94 88 82 71 62 42 20 58 81 106 150
141 143 143 138 130 133 139 142 136 135 137 139 137 133 115 70 61 85 102 109 113 107 120 138 120 97 84 79 81 94 95 92 94 94 97 167 246 241 60 58 55 55 44
149 150 147 141 134 129 135 144 147 153 153 153 153 157 151 133 112 71 79 91 93 87 80 80 78 71 66 62 59 66 84 107 119 126 145 303 17 54 52 61 86 67 37
154 154 151 147 144 136 124 123 155 171 178 171 175 172 168 181 211 180 152 144 139 127 97 69 60 57 56 42 35 33 42 55 72 84 103 80 55 57 7 3 93 98 111
160 162 161 156 152 146 137 100 48 74 137 168 172 168 178 183 174 166 162 158 146 137 112 105 107 114 123 124 116 62 57 81 86 91 94 104 136 166 239 13 78 127 193
167 167 165 165 163 162 159 153 141 58 58 92 148 163 169 174 175 173 165 153 143 132 115 133 145 157 165 167 166 161 183 198 145 114 118 126 110 133 132 305 254 217 257
167 169 170 172 173 172 172 170 165 161 159 130 50 172 177 179 182 182 165 131 108 124 147 160 176 182 178 174 176 175 173 141 103 105 113 104 110 154 210 253 221 215 234
168 171 171 172 174 173 171 168 166 165 163 161 146 89 175 170 165 171 155 147 164 185 191 184 179 173 167 160 160 164 162 161 152 145 157 195 218 174 239 264 258 249 214
171 172 169 171 172 171 171 169 169 169 171 175 181 180 157 138 150 170 180 179 177 189 191 186 184 172 165 158 156 158 152 156 153 160 200 222 214 191 221 249 248 245 243
169 174 172 170 173 173 172 174 175 175 178 183 191 187 172 173 183 187 193 199 194 192 189 183 180 176 173 168 164 163 161 177 190 191 197 215 212 234 256 249 251 250 253
167 172 172 171 172 172 172 174 174 176 181 182 182 184 182 175 180 186 197 206 203 197 186 176 180 186 187 180 175 173 174 184 196 193 196 210 221 244 258 261 263 257 252
162 162 164 164 165 164 164 169 172 173 177 179 178 175 176 186 190 191 197 199 188 184 178 173 173 179 179 179 178 173 181 198 204 194 193 202 220 241 246 242 240 247 250
165 166 168 165 162 166 168 171 176 176 173 174 175 177 179 185 190 194 193 187 179 178 179 180 177 175 174 178 181 185 192 202 203 198 192 198 215 237 242 245 250 248 243
165 164 166 167 168 170 170 174 179 179 177 178 178 176 177 177 183 187 190 179 175 179 184 184 182 180 181 181 182 185 192 202 209 210 200 193 207 225 234 241 245 251 247
162 163 165 166 168 171 172 175 175 172 174 178 178 178 181 184 187 189 190 183 182 186 186 184 183 180 181 187 194 195 198 208 215 212 202 195 203 227 236 241 245 240 238
Height
1549 1550 1551 1551 1552 1552 1552 1552 1552 1552 1552 1552 1551 1550 1550 1550 1549 1549 1549 1548 1548 1548 1547 1547 1547 1547 1547 1547 1547 1547 1548 1549 1549 1551 1552 1553 1553 1553 1552 1552 1551 1551 1551
1548 1549 1549 1550 1551 1550 1550 1550 1550 1550 1550 1550 1550 1549 1549 1548 1548 1547 1546 1546 1546 1545 1545 1545 1545 1545 1545 1546 1546 1546 1547 1547 1548 1548 1550 1551 1552 1552 1552 1552 1551 1551 1551
1547 1548 1548 1549 1549 1549 1548 1548 1548 1548 1549 1549 1548 1548 1547 1547 1546 1545 1545 1544 1544 1544 1544 1544 1544 1544 1544 1544 1545 1545 1546 1546 1547 1547 1548 1550 1550 1551 1551 1551 1551 1551 1551
1546 1547 1547 1547 1547 1548 1548 1547 1547 1547 1547 1547 1547 1547 1546 1546 1545 1544 1544 1543 1543 1542 1543 1543 1543 1543 1543 1543 1543 1544 1545 1545 1546 1546 1547 1548 1549 1550 1550 1550 1550 1551 1551
1544 1545 1546 1546 1547 1547 1547 1546 1546 1546 1546 1546 1546 1546 1545 1545 1544 1544 1543 1542 1542 1542 1542 1542 1542 1542 1542 1542 1542 1543 1543 1544 1544 1545 1545 1546 1547 1548 1548 1548 1549 1550 1550
1543 1544 1545 1545 1546 1546 1546 1546 1546 1546 1545 1545 1545 1544 1544 1544 1544 1544 1543 1542 1542 1541 1541 1541 1541 1541 1541 1541 1542 1542 1543 1543 1543 1543 1543 1544 1545 1546 1547 1547 1547 1548 1549
1541 1543 1544 1544 1545 1545 1545 1546 1545 1545 1545 1545 1544 1544 1544 1544 1544 1544 1543 1542 1542 1541 1541 1541 1541 1541 1541 1541 1541 1542 1542 1542 1543 1543 1543 1544 1544 1545 1546 1547 1547 1547 1548
1540 1541 1542 1543 1544 1544 1545 1545 1545 1545 1545 1545 1544 1544 1543 1543 1543 1543 1543 1543 1542 1542 1541 1541 1541 1541 1542 1542 1542 1542 1542 1542 1542 1543 1543 1544 1545 1545 1546 1547 1547 1547 1548
1538 1540 1540 1541 1542 1543 1544 1544 1545 1545 1545 1544 1544 1544 1544 1544 1544 1543 1543 1543 1542 1542 1542 1542 1542 1542 1543 1543 1543 1542 1542 1542 1543 1543 1544 1544 1545 1545 1545 1546 1546 1546 1546
1536 1538 1539 1540 1541 1542 1543 1544 1544 1544 1544 1544 1544 1544 1544 1543 1544 1544 1544 1543 1543 1543 1543 1543 1543 1543 1544 1544 1544 1543 1543 1543 1543 1544 1544 1544 1545 1545 1545 1545 1545 1545 1545
1535 1536 1538 1539 1540 1541 1542 1543 1543 1544 1544 1544 1544 1544 1543 1543 1543 1544 1544 1544 1544 1544 1544 1544 1544 1545 1545 1545 1545 1545 1545 1545 1545 1545 1545 1545 1545 1545 1544 1544 1545 1545 1545
1534 1535 1536 1538 1539 1540 1541 1542 1543 1543 1543 1543 1543 1543 1543 1543 1543 1544 1545 1545 1545 1545 1545 1545 1546 1546 1546 1546 1546 1546 1546 1546 1546 1545 1545 1545 1545 1545 1544 1544 1544 1544 1544
1532 1533 1535 1536 1538 1539 1540 1541 1541 1542 1542 1543 1543 1543 1543 1543 1544 1545 1545 1546 1546 1546 1546 1547 1547 1547 1547 1547 1547 1547 1547 1547 1546 1546 1546 1546 1546 1545 1545 1545 1544 1544 1544
1530 1531 1533 1534 1536 1537 1539 1540 1540 1541 1541 1542 1542 1543 1543 1544 1544 1545 1545 1546 1546 1547 1547 1547 1548 1548 1548 1548 1548 1548 1547 1547 1547 1546 1546 1546 1546 1546 1545 1545 1544 1544 1543
1528 1530 1531 1533 1534 1536 1537 1538 1539 1540 1541 1541 1542 1543 1543 1543 1545 1545 1546 1546 1547 1547 1548 1548 1548 1548 1548 1548 1548 1548 1547 1547 1547 1547 1546 1546 1545 1545 1545 1544 1544 1543 1543
1526 1528 1529 1531 1532 1534 1535 1536 1537 1539 1540 1541 1542 1543 1543 1544 1545 1545 1546 1547 1547 1548 1548 1547 1547 1547 1547 1547 1547 1547 1547 1547 1547 1547 1546 1546 1545 1544 1544 1543 1543 1542 1541
1524 1526 1527 1529 1530 1532 1533 1534 1535 1537 1539 1540 1541 1542 1542 1543 1544 1545 1545 1546 1547 1547 1547 1547 1547 1547 1547 1547 1547 1547 1547 1546 1546 1546 1545 1545 1544 1543 1543 1542 1541 1541 1540
1522 1524 1526 1527 1529 1530 1531 1533 1534 1535 1537 1538 1539 1540 1541 1542 1543 1544 1545 1545 1545 1546 1546 1546 1546 1546 1546 1546 1546 1546 1546 1545 1545 1544 1544 1543 1543 1542 1541 1540 1539 1539 1538
1520 1522 1524 1525 1527 1528 1530 1531 1533 1534 1535 1536 1537 1539 1540 1541 1542 1543 1543 1544 1544 1544 1545 1545 1545 1545 1545 1545 1545 1544 1544 1544 1543 1543 1542 1542 1541 1540 1539 1538 1538 1537 1536
1518 1520 1521 1523 1524 1526 1528 1529 1530 1532 1533 1534 1535 1537 1538 1539 1539 1540 1541 1542 1542 1542 1543 1543 1543 1543 1543 1543 1543 1542 1542 1542 1541 1541 1540 1539 1539 1538 1537 1536 1535 1535 1534
1516 1517 1519 1520 1522 1523 1525 1527 1528 1529 1531 1532 1533 1535 1536 1537 1538 1538 1539 1539 1540 1540 1540 1541 1541 1541 1541 1541 1541 1540 1540 1539 1539 1538 1538 1537 1536 1536 1535 1534 1533 1532 1531
1514 1515 1516 1518 1520 1521 1522 1524 1526 1527 1528 1530 1531 1533 1534 1535 1535 1536 1537 1537 1538 1538 1538 1539 1539 1539 1539 1538 1538 1537 1537 1536 1536 1535 1535 1535 1534 1533 1533 1532 1531 1530 1529
1512 1513 1515 1516 1518 1519 1521 1522 1524 1525 1526 1528 1529 1530 1531 1532 1533 1534 1534 1534 1535 1535 1536 1536 1536 1535 1535 1535 1535 1534 1534 1533 1533 1533 1532 1532 1531 1530 1530 1529 1528 1527 1526
1510 1511 1512 1514 1515 1517 1518 1520 1522 1523 1524 1526 1527 1528 1529 1529 1530 1531 1531 1532 1532 1533 1533 1533 1533 1532 1532 1532 1531 1531 1530 1530 1530 1529 1529 1528 1528 1527 1526 1526 1525 1524 1523
1508 1509 1510 1512 1513 1515 1516 1518 1519 1520 1522 1523 1524 1525 1526 1527 1528 1528 1529 1529 1529 1529 1530 1530 1529 1529 1529 1528 1528 1527 1527 1526 1526 1526 1525 1525 1524 1523 1522 1522 1521 1520 1520
1506 1507 1508 1510 1511 1512 1514 1515 1516 1518 1519 1521 1522 1522 1523 1524 1525 1525 1526 1526 1526 1526 1526 1526 1526 1526 1525 1525 1524 1524 1523 1523 1522 1522 1521 1520 1520 1519 1518 1518 1517 1516 1516